Location: Bittkow
(50.3000°N, 19.0000°E)
Time: 21:55:23
(UTC+00:00)

SL-24 R/B - RUBIN 2 - Pass Details

Date: 19 September 2020
Orbit: 569 x 1026 km, 64.6° (Epoch: 20 October)

Event Time Altitude Azimuth Distance (km) Brightness Sun altitude
Exits shadow 01:20:17 71° 193° (SSW) 1,061 4.4 -27.8°
Maximum altitude 01:21:02 82° 129° (SE) 1,024 4.5 -27.7°
Drops below altitude 10° 01:27:49 10° 42° (NE) 2,828 7.9 -26.9°
Sets 01:30:28 0° 42° (NE) 3,777 8.9 -26.6°
